FENGYUN 1C DEB, 32308

Orbit data source: Space-Track

FENGYUN 1C DEB, 32308 is space debris in SSO originally from a launch on Mon, 10 May 1999 UTC launched from the Taiyaun Space Center, China (TSC). Fengyun 1C debris stems from the Chinese weather satellite Fengyun-1C, which was intentionally destroyed by a Chinese anti-satellite missile in 2007. This event dramatically increased the amount of space debris, with thousands of trackable fragments posing hazards to satellites and human spaceflight. The Fengyun 1C debris cloud has become a focal point in discussions about space sustainability and the need for international regulations to prevent the creation of new debris.

Loading next visibility...
Identifier
32308, 1999-025CWZ
Orbit
SSO
Country
Flag of CNCN / PRC
Related business
Manufacturer
Unknown
Mission
Spacecraft
Bus & Motor
Unknown
Mass
Unknown
Launch date (UTC)
1999-05-10 (27 years ago)
Launch vehicle
Unknown
Launch site
Taiyaun Space Center, China (TSC)
Object type
Payload
Rocket body
Debris
Shape & HBR
Unknown shape, 0.1 m
Radar Cross Section
Small (<0.1 m²)

Expand to show TLE details & history
Last TLE update: 2 days ago

TLE from 2 days ago
0 FENGYUN 1C DEB
1 32308U 99025CWZ 25352.11346407  .00002054  00000-0  12186-2 0  9995
2 32308  97.7739  44.2538 0108333  44.9982 315.9904 14.05525608654877
Epoch: 2025-12-18T02:43Z
TLE epoch observation values (Epoch: 2025-12-18T02:43:23.295Z)
Latitude
-0.00005°
Longitude
-83.56689°
Altitude
821.54 km
Speed
7.471 km/s
True Right ascension
02h 57m 00s
True Declination
0° 00' 00"
Sunlit
Object was in full shadow at epoch
Visualization orbit readout
Latitude
Unknown
Longitude
Unknown
Altitude
Unknown
Speed
Unknown
Apparent Right ascension
Unknown
Apparent Declination
Unknown
Sunlit
N/A
Visualization observer readout
Local Sidereal Time
04:52:57
Azimuth
Unknown
Elevation
Unknown
Doppler factor
Unknown
Orbital elements
Apogee altitude
950.4 km
Perigee altitude
793.318 km
Semi-major axis
7,249.996 km
Eccentricity
0.01083
Inclination
97.7739°
RAAN
44.2538°
Arg. of periapsis
44.9982°
True anomaly
315.11945°
Mean anomaly
315.9904°
Eccentric anomaly
315.55578°
Mean motion
3.5159 °/min
Orbital period
102.39 mins
BSTAR
0.0012186
Loading maneuver chart data...
Computing Atmospheric mass density...

Documentation

Showing up to 5 results
|